Location: Red Deer
(52.2681°N, 113.8112°W)
Time: 00:46:59
(UTC-07:00)

BlueWalker 3 - Pass Details

Date: 30 November 2022
Orbit: 499 x 517 km, 53.2° (Epoch: 29 January)

Event Time Altitude Azimuth Distance (km) Brightness Sun altitude
Rises 19:02:37 0° 272° (W) 2,627 7.0 -22.9°
Reaches altitude 10° 19:04:50 10° 274° (W) 1,737 5.7 -23.2°
Enters shadow 19:08:17 64° 302° (WNW) 569 2.2 -23.7°
